Change the Weather History Date:

Tuesday, November 29, 2011

  Actual Average Record
Temperature  
Mean Temperature 46 °F -  
Max Temperature 59 °F 65 °F 78 °F (1963)
Min Temperature 32 °F 46 °F 26 °F (1959)
Degree Days  
Heating Degree Days 20    
Moisture  
Dew Point 34 °F    
Average Humidity 67    
Maximum Humidity 93    
Minimum Humidity 43    
Precipitation  
Precipitation 0.00 in - - ()
Sea Level Pressure  
Sea Level Pressure 30.03 in    
Wind  
Wind Speed 3 mph (NW)    
Max Wind Speed 10 mph    
Max Gust Speed 21 mph    
Visibility 10 miles    
Events      
Averages and records for this station are not official NWS values.
T = Trace of Precipitation, MM = Missing Value Source: NWS Daily Summary

Daily Weather History Graph

Daily Weather History Graph

Search for Another Location

Airport or City:

Trip Planner

Search our weather history database for the weather conditions in past years. The results will help you decide how hot, cold, wet, or windy it might be!

Date:

Astronomy

Nov. 29, 2011 Rise Set
Actual Time 6:31 AM CST 4:53 PM CST
Civil Twilight 6:05 AM CST 5:19 PM CST
Nautical Twilight 5:35 AM CST 5:48 PM CST
Astronomical Twilight 5:06 AM CST 6:17 PM CST
Moon 10:24 AM CST (11/29) 9:37 PM CST (11/29)
Length of Visible Light 11h 13m
Length of Day
10h 21m
Waxing Crescent, 24% of the Moon is Illuminated
Nov 29
Waxing Crescent
Dec 2
First Quarter
Dec 10
Full
Dec 17
Last Quarter
Dec 24
New

Hourly Weather History & Observations

Time (CST) Temp. Windchill Dew Point Humidity Pressure Visibility Wind Dir Wind Speed Gust Speed Precip Events Conditions
12:53 AM 37.0 °F - 32.0 °F 82% 30.02 in 10.0 mi Calm Calm - N/A   Clear
1:53 AM 36.0 °F - 30.9 °F 82% 30.02 in 10.0 mi Calm Calm - N/A   Clear
2:53 AM 36.0 °F - 30.9 °F 82% 30.01 in 10.0 mi Calm Calm - N/A   Clear
3:53 AM 32.0 °F - 30.0 °F 92% 30.00 in 9.0 mi Calm Calm - N/A   Clear
4:53 AM 32.0 °F - 30.0 °F 92% 30.00 in 10.0 mi Calm Calm - N/A   Clear
5:53 AM 39.0 °F 35.7 °F 33.1 °F 79% 29.97 in 10.0 mi SW 4.6 mph - N/A   Clear
6:53 AM 42.1 °F 40.2 °F 33.1 °F 70% 29.99 in 10.0 mi WSW 3.5 mph - N/A   Clear
7:53 AM 48.0 °F - 32.0 °F 54% 30.00 in 10.0 mi West 10.4 mph - N/A   Clear
8:53 AM 50.0 °F - 30.9 °F 48% 30.01 in 10.0 mi West 10.4 mph 20.7 mph N/A   Clear
9:53 AM 50.0 °F - 30.0 °F 46% 30.01 in 10.0 mi West 10.4 mph 18.4 mph 0.00 in   Clear
10:53 AM 52.0 °F - 30.9 °F 45% 30.02 in 10.0 mi West 8.1 mph - 0.00 in   Clear
11:53 AM 54.0 °F - 32.0 °F 43% 30.00 in 10.0 mi West 10.4 mph 16.1 mph N/A   Clear
12:53 PM 55.9 °F - 34.0 °F 44% 29.99 in 10.0 mi Variable 6.9 mph - N/A   Clear
1:53 PM 57.9 °F - 36.0 °F 44% 29.98 in 10.0 mi NNW 8.1 mph 17.3 mph N/A   Clear
2:53 PM 59.0 °F - 37.9 °F 46% 29.99 in 10.0 mi NNW 8.1 mph 16.1 mph N/A   Clear
3:53 PM 57.9 °F - 37.9 °F 47% 30.00 in 10.0 mi NNW 9.2 mph - N/A   Clear
4:53 PM 54.0 °F - 37.9 °F 55% 30.03 in 10.0 mi NW 3.5 mph - N/A   Clear
5:53 PM 48.0 °F - 39.9 °F 74% 30.06 in 10.0 mi NE 4.6 mph - N/A   Clear
6:53 PM 45.0 °F 42.6 °F 37.9 °F 76% 30.09 in 10.0 mi NNE 4.6 mph - N/A   Clear
7:53 PM 43.0 °F 41.3 °F 37.0 °F 80% 30.12 in 10.0 mi NNE 3.5 mph - N/A   Clear
8:53 PM 39.9 °F 37.8 °F 37.0 °F 89% 30.13 in 10.0 mi North 3.5 mph - N/A   Clear
9:53 PM 39.9 °F - 36.0 °F 86% 30.15 in 10.0 mi Calm Calm - N/A   Clear
10:53 PM 36.0 °F - 34.0 °F 93% 30.16 in 7.0 mi Calm Calm - N/A   Clear